#timestamp,LO_Frequency,Hit,StdDev 
1638828015.7,286047001.0,N
1638828035.5,286046999.7,N
1638828055.4,286046999.9,N
1638828075.2,286047000.2,N
1638828095.0,286047000.3,N
1638828095.9,286047000.3,N
1638828115.8,286047002.1,N
1638828135.6,286047002.4,N
1638828155.4,286047000.2,N
1638828175.3,286047002.8,N
1638828195.1,286047002.2,N
1638828215.9,286047002.5,N
1638828235.7,286047002.0,N
1638828255.5,286047002.4,N
1638828275.4,286047002.2,N
1638828295.2,286047001.0,N
1638828315.0,286047000.9,N
1638828316.0,286047000.9,N
1638828335.8,286047002.5,N
1638828355.6,286047002.0,N
1638828375.5,286047002.5,N
1638828395.3,286047003.7,N
1638828415.1,286047001.6,N
1638828435.9,286047002.6,N
1638828455.7,286047002.2,N
1638828475.6,286047002.6,N
1638828495.4,286047001.9,N
1638828515.2,286047001.3,N
1638828535.1,286047002.5,N
1638828536.0,286047002.5,N
1638828555.8,286047011.9,Y
1638828575.6,286046999.7,P
1638828595.5,286046999.9,N
1638828615.3,286047001.4,N
1638828635.2,286047001.9,N
1638828655.9,286047002.3,N
1638828675.7,286046999.7,N
1638828695.6,286047000.4,N
1638828715.4,286047000.5,N
1638828735.2,286047001.5,N
1638828755.1,286047001.7,N
1638828756.0,286047001.7,N
1638828775.8,286047001.7,N
1638828795.7,286047003.2,Y
1638828815.5,286047004.0,P
1638828835.3,286047003.6,N
1638828855.2,286047001.7,N
1638828875.0,286047001.6,N
1638828875.9,286047001.6,N
1638828895.8,286047001.8,N
1638828915.6,286047001.8,N
1638828935.4,286047004.3,Y
1638828955.3,286047002.8,P
1638828975.1,286047002.6,P
1638828995.8,286046999.9,N
1638829015.7,286047000.1,N
1638829035.5,286047002.8,N
1638829055.4,286047002.1,N
1638829075.2,286047002.2,N
1638829095.0,286047000.2,N
1638829096.0,286047000.2,N
1638829115.8,286046999.8,N
1638829135.6,286047002.8,N
1638829155.5,286047001.3,N
1638829175.3,286047000.0,N
1638829195.1,286046999.8,N
1638829215.9,286047000.7,N
1638829235.7,286046998.2,N
1638829255.6,286046998.2,N
1638829275.4,286047000.6,N
1638829295.2,286046998.2,N
1638829315.1,286047000.8,N
1638829316.0,286047000.8,N
1638829335.8,286046998.1,N
1638829355.7,286046998.7,N
1638829375.5,286046999.2,N
1638829395.3,286046999.2,N
1638829415.2,286046997.9,N
1638829435.9,286046996.0,N
1638829455.7,286046993.4,Y
1638829475.6,286046995.7,P
1638829495.4,286046997.9,N
1638829515.3,286046999.2,N
1638829535.1,286046998.9,N
1638829536.0,286046998.9,N
1638829555.8,286047000.6,N
1638829575.7,286047000.4,N
1638829595.5,286047000.6,N
1638829615.3,286046998.1,N
1638829635.2,286046998.2,N
1638829655.0,286046998.7,N
1638829655.9,286046998.7,N
1638829675.8,286047001.1,N
1638829695.6,286046999.2,N
1638829715.4,286046997.3,N
1638829735.3,286046996.6,N
1638829755.1,286046998.8,N
1638829775.8,286046999.6,N
1638829795.7,286046997.1,N
1638829815.5,286046997.0,N
1638829835.4,286046997.7,N
1638829855.2,286046998.0,N
1638829875.0,286046997.3,N
1638829875.9,286046997.3,N
1638829895.8,286046997.7,N
1638829915.6,286046997.1,N
1638829935.5,286046996.8,N
1638829955.3,286046995.0,Y
1638829975.1,286046998.5,P
1638829995.9,286046999.3,P
1638830015.7,286046997.2,P
1638830035.6,286046996.8,Y
1638830055.4,286047000.9,P
1638830075.2,286046999.9,N
1638830095.1,286047002.2,N
1638830096.0,286047002.2,N
1638830115.8,286047001.6,N
1638830135.7,286047000.2,N
1638830155.5,286047002.4,N
1638830175.3,286047002.7,N
1638830195.2,286046999.7,N
1638830215.9,286047001.8,N
1638830235.7,286047003.8,N
1638830255.6,286047004.0,N
1638830275.4,286047002.1,N
1638830295.3,286047004.4,N
1638830315.1,286047001.6,N
1638830316.0,286047001.6,N
1638830335.8,286047004.0,N
1638830355.7,286047002.0,N
1638830375.5,286047001.7,N
1638830395.4,286047004.4,N
1638830415.2,286046999.7,N
1638830435.0,286046999.7,N
1638830435.9,286046999.7,N
1638830455.8,286047002.3,N
1638830475.6,286047001.6,N
1638830495.5,286047002.2,N
1638830515.3,286047004.0,N
1638830535.2,286047003.6,N
1638830555.9,286047002.5,N
1638830575.7,286047001.5,N
1638830595.6,286047001.3,N
1638830615.4,286047001.8,N
1638830635.2,286047002.0,N
1638830655.1,286047000.1,N
1638830656.0,286047000.1,N
1638830675.8,286047001.5,N
1638830695.7,286047001.9,N
1638830715.5,286047003.5,N
1638830735.3,286047004.2,N
1638830755.2,286047003.2,N
1638830775.0,286047003.9,N
1638830775.9,286047003.9,N
1638830795.7,286047000.0,N
1638830815.6,286047002.8,N
1638830835.4,286046999.7,N
1638830855.3,286047003.9,N
1638830875.1,286047003.5,N
1638830876.0,286047003.5,N
1638830895.8,286047001.4,N
1638830915.7,286047001.0,N
1638830935.5,286047002.8,N
1638830955.3,286047002.6,N
1638830975.2,286047000.1,N
1638830995.0,286047002.2,N
1638830995.9,286047002.2,N
1638831015.8,286047002.5,N
1638831035.6,286047002.1,N
1638831055.4,286047002.8,N
1638831075.3,286047002.5,N
1638831095.1,286047001.9,N
1638831115.9,286047004.3,Y
1638831135.7,286047001.6,P
1638831155.5,286047002.1,P
1638831175.4,286047002.5,P
1638831195.2,286046999.7,N
1638831215.1,286047002.4,N
1638831216.0,286047002.4,N
1638831235.8,286047000.1,N
1638831255.6,286047002.5,N
1638831275.5,286047002.7,N
1638831295.3,286047001.4,N
1638831315.1,286047001.7,N
1638831335.9,286047004.1,Y
1638831355.7,286046999.7,P
1638831375.6,286047001.0,N
1638831395.4,286046998.2,N
1638831415.2,286047000.9,N
1638831435.1,286047001.2,N
1638831436.0,286047001.2,N
1638831455.8,286046998.7,N
1638831475.7,286046998.2,N
1638831495.5,286047001.2,N
1638831515.3,286046998.6,N
1638831535.2,286046998.5,N
1638831555.9,286046998.8,N
1638831575.7,286046999.3,N
1638831595.6,286046998.7,N
